Regional Weather Roundup
Issued by NWS Wakefield, VA

Home | Current Version | Previous Version | Graphics & Text | Print | Product List | Glossary On
Versions: 1 2 3 4 5 6 7 8 9 10 11 12 13 14 15 16 17 18 19 20 21 22 23 24 25 26 27 28
000
ASUS41 KAKQ 280615
RWRAKQ

REGIONAL WEATHER ROUNDUP
NATIONAL WEATHER SERVICE WAKEFIELD VA
200 AM EDT THU APR 28 2016

Note: "fair" indicates few or no clouds below 12,000 feet with no
significant weather and/or obstructions to visibility. * = Denotes
station may not report precipitation (e.g., rain,snow,etc.),
thunder or fog.

VAZ042-051-052>054-056-280700-
NORTHERN VIRGINIA

CITY           SKY/WX    TMP DP  RH WIND       PRES   REMARKS
WASH NATIONAL  CLOUDY    54  50  86 CALM      29.92F
DULLES         CLOUDY    53  50  89 CALM      29.91F
FORT BELVOIR   CLOUDY    53  50  90 MISG      29.91F
QUANTICO       CLOUDY    56  51  84 CALM      29.91F
FREDERICKSBRG* CLOUDY    55  55 100 CALM      29.91S
STAFFORD*      CLOUDY    53  51  92 CALM      29.95F
WARRENTON      CLOUDY    55  49  80 CALM      29.91S
CULPEPER*      CLOUDY    55  54  94 CALM      29.93S FOG
MANASSAS*      CLOUDY    54  54 100 CALM      29.92F
LEESBURG*      CLOUDY    54  54 100 E3        29.92F
WINCHESTER     CLOUDY    54  52  94 CALM      29.91S FOG
FRONT ROYAL*   CLOUDY    54  52  94 CALM      29.90R
LURAY*         CLOUDY    54  54 100 CALM      29.91R FOG
$$

VAZ048-049-060>072-079>083-280700-
CENTRAL AND SOUTH CENTRAL VIRGINIA

CITY           SKY/WX    TMP DP  RH WIND       PRES   REMARKS
RICHMOND       CLOUDY    56  55  97 CALM      29.90F FOG
CHESTERFIELD*  CLOUDY    57  45  62 E5        29.91F
PETERSBURG*    CLOUDY    60  57  88 E3        29.90F
HANOVER        CLOUDY    55  52  89 CALM      29.93S FOG
TAPPAHANNOCK*  CLOUDY    56  56 100 E3        29.90F FOG
QUINTON*       CLOUDY    56  56  97 E10G18    29.90F
CHARLOTTSVILLE CLOUDY    57  54  89 CALM      29.90F
GORDONSVILLE*  CLOUDY    55  55 100 CALM      29.91F
ORANGE*        CLOUDY    55  55 100 CALM      29.93F
LOUISA*        CLOUDY    57  57 100 CALM      29.90F
BUMPASS*       CLOUDY    54  53  99 CALM      29.91S
FARMVILLE*     CLOUDY    60  60 100 N3        29.90R
CREWE*         CLOUDY    59  59 100 CALM      29.90R
FORT PICKETT*  NOT AVBL
CHASE CITY*    CLOUDY    60  58  94 CALM      29.90R
CLARKSVILLE*   CLOUDY    63  63 100 N6        29.89R
SOUTH HILL*    CLOUDY    58  58 100 NE3       29.95R
LAWRENCEVILLE* CLOUDY    57  57 100 E5        29.89S
EMPORIA*       CLOUDY    55  55 100 NE6       29.91F THUNDER FOG
$$

VAZ088>098-280700-
SOUTHEAST VIRGINIA

CITY           SKY/WX    TMP DP  RH WIND       PRES   REMARKS
NORFOLK        CLOUDY    56  52  86 CALM      29.92R
VIRGINIA BEACH CLOUDY    58  52  80 CALM      29.91R
NORFOLK NAVAL  CLOUDY    56  54  93 CALM      29.93R
WEST POINT*    CLOUDY    56  54  95 E5        29.91F
SALUDA*        CLOUDY    55  53  95 E3        29.90F
NEWPORT NEWS   CLOUDY    57  54  89 SE3       29.91S
LANGLEY AFB    CLOUDY    56  55  93 SE6       29.91R
FORT EUSTIS    CLOUDY    57  57  99 SE5       29.89F
WILLIAMSBURG*  CLOUDY    57  55  94 CALM      29.92F
HR EXEC AP*    CLOUDY    57  54  88 E3        29.93F
FRANKLIN*      CLOUDY    55  55  97 NE6       29.90F THUNDER FOG
US460-WAKEFLD  CLOUDY    58  54  86 NE3       29.90F
$$

VAZ020-022-025-037-045-280700-
WEST CENTRAL AND SOUTHWEST VIRGINIA

CITY           SKY/WX    TMP DP  RH WIND       PRES   REMARKS
STAUNTON*      CLOUDY    59  59 100 NW3       29.92R FOG
WAYNESBORO*    CLOUDY    55  54  97 MISG      29.91R
HOT SPRINGS VA NOT AVBL
LYNCHBURG      CLOUDY    58  57  97 NE7       29.90F FOG
DANVILLE       RAIN      64  63  96 SW7       29.89S FOG
SOUTH BOSTON*  CLOUDY    62  60  95 CALM      29.89F
MARTINSVILLE   RAIN      61  61 100 CALM      29.91F
ROANOKE        CLOUDY    63  62  97 SE12      29.89F
BLACKSBURG     FAIR      63  62  97 SE3       29.93S
DUBLIN*        FAIR      60  60  99 SW3       29.91F
MARION*        RAIN      61  58  92 W8        29.96R
HILLSVILLE*    MOCLDY    59  57  94 SW5       29.91F
RICHLANDS*     FAIR      64  38  38 S6        29.90F
WISE*          FAIR      61  59  94 E3        29.91F
ABINGDON*      FAIR      63  62  97 NE3       29.88F
$$

MDZ021>025-VAZ099-100-280700-
SOUTHERN MARYLAND AND THE DELMARVA PENINSULA

CITY           SKY/WX    TMP DP  RH WIND       PRES   REMARKS
PATUXENT RIVER CLOUDY    53  50  89 CALM      29.91F
BAY BRIDGE APT NOT AVBL
LEONARDTOWN    CLOUDY    50  48  93 CALM      29.93F
DOVER          CLOUDY    49  49 100 W1        29.92F
GEORGETOWN     CLOUDY    50  46  86 CALM      29.93F
EASTON         PTCLDY   N/A N/A N/A CALM      29.97S
CAMBRIDGE      MOCLDY    46  45  93 CALM      29.92S
SALISBURY      CLOUDY    50  47  89 NE5       29.92F
OCEAN CITY     CLOUDY    51  48  89 NE5       29.92F
WALLOPS ISLAND MOCLDY    52  50  93 CALM      29.91F
ACCOMACK*      MOCLDY   N/A N/A N/A NE5       29.90F
$$

NCZ012>017-030>032-280700-
NORTH CENTRAL AND EASTERN NORTH CAROLINA

CITY           SKY/WX    TMP DP  RH WIND       PRES   REMARKS
ROANOKE RAPIDS LGT RAIN  64  63  94 CALM      29.91R
RALEIGH        CLOUDY    67  65  93 E3        29.87F
ELIZABETH CITY LGT RAIN  59  58  96 CALM      29.92R
AHOSKIE*       LGT RAIN  64  63  97 SE3       29.90S
EDENTON*       LGT RAIN  65  65 100 CALM      29.90F
CURRITUCK*     RAIN      57  57 100 CALM      29.92R
KILL DEVIL HLS LGT RAIN  57  56  95 CALM      29.89S
MANTEO         NOT AVBL
CAPE HATTERAS  MOCLDY    68  65  90 W3        29.92F
TARBORO*       CLOUDY    66  65  94 E3        29.90S
GOLDSBORO      CLOUDY    70  61  73 SW7       29.85F
WASHINGTON     CLOUDY    65  60  85 SE6       29.89S
GREENVILLE     CLOUDY    66  64  94 NE8       29.92R
NEW BERN       PTCLDY    65  59  81 CALM      29.91S
WILMINGTON     CLOUDY    70  65  84 SW8       29.90F
$$

VAZ048-280700-
ELSEWHERE

CITY           SKY/WX    TMP DP  RH WIND       PRES   REMARKS
HARRISBURG PA  CLOUDY    53  47  79 CALM      29.93F
BALTIMORE      CLOUDY    52  48  86 CALM      29.93S
ANNAPOLIS      CLOUDY    54  50  86 CALM      29.92F
ANDREWS AFB    CLOUDY    52  50  93 NE3       29.91S
PHILADELPHIA   MOCLDY    51  44  77 CALM      29.94F
HENDERSON NC   RAIN      64  64 100 CALM      29.89R
GREENSBORO     LGT RAIN  65  65 100 E7        29.87F FOG
ROCKY MOUNT    CLOUDY    66  65  96 N9        29.90R
$$

VAZ100-280700-
MARINE

STATION/POSITION TIME  TEMP    WIND        PRES    WAVE   SWELL
                       AIR SEA DIR/SP/G            HT/PER HT/PER
                 (UTC) (F)     (DEG/KT/KT) (MB)    (FT/S) (FT/S)
BRANDYWINE LGT   0500          190/  3/  3 1013.9S
CAPE MAY NJ      0500   49 60  180/  1/  2 1013.4F
LEWES DE         0500      56   CALM  /  1 1013.8R
15NM E FENWICK I 0550   51 52              1013.6R   3/ 6
OCEAN-CITY-INLET 0500   51 54   CALM  /  2 1012.8R
WACHAPREAGUE VA  0500   53 63   60/  7/ 10 1012.9R
THOMAS POINT MD  0600   53 58  120/  4/  5 1014.9S
GOOSES REEF MD   0600   54 59   70/  2/  4 1014.3S
COVE POINT MD    0500   53      CALM  /  4 1013.9F
SOLOMONS ISLAND  0500   54 61  190/  3/  4   N/A
BISHOPS HEAD MD  0500   54 62  120/  5/  6 1012.6F
PINEY POINT MD   0500          140/  4/  5   N/A
POTOMAC MD       0600   55 59  130/  4/  6 1011.5F   1
CAMBRIDGE MD     0500   51 62  120/  2/  3 1012.6F
LEWISETTA VA     0500   55 62  160/  5/  6 1012.8F
RAPPAHANNOCK LGT 0500           30/  6/  7 1013.7R
STINGRAY PT      0500   55 62   70/ 10/ 12 1013.3R   1/ 2
YORK RVR RNG VA  0500   56      80/  8/  9 1012.2R
YORKTOWN VA      0500   56 62   80/  8/  9 1012.7R
JAMESTOWN VA     0600   58 68  140/  8/ 10   N/A     0
DOMINION TERM VA 0500   56      90/  8/ 12 1012.9R
KIPTOPEKE VA     0500      61   90/  4/  7   N/A
CHES BAY BRIDGE  0500   54 56   60/ 10/ 11 1012.5R
CAPE HENRY VA    0500   54      80/ 10/ 11   N/A
CHESAPEAKE LGHT  0500   53      80/  9/ 10 1013.9R
WILLOUBY STN VA  0500   55     100/ 11/ 12 1013.5F
CAPE HENRY BUOY  0512      57                N/A     4/ 7
CAPE CHARLES BUO 0526      56                N/A     3/ 7   3/ 7
OFFSHORE WE BUOY 0521      55                N/A     5/ 7   5/ 7
64NM E OF VA BCH 0550   54 53   30/  6/  8 1012.0F   4/ 6   3/ 6
DUCK PIER NC     0500   55 63   60/  5/  5 1012.6S
44100 DUCK FRF   0524      58                N/A     4/ 7
44056 DUCK FRF   0511      57                N/A     3/ 7
OREGON INLET NC  0500   57 71   50/  2/  5 1013.0S
HATTERAS NC      0500   69 68  270/  8/ 12 1013.4R
DIAMOND SHLS NC  0550   72 71  250/ 12/ 14 1013.1S   4/ 6   2/12
CAPE LOOKOUT NC  0600   68     220/  7/  9 1012.6F
$$




USA.gov is the U.S. government's official web portal to all federal, state and local government web resources and services.